Weather History for KBRO - October, 2012

Change the Weather History Date:

Tuesday, October 9, 2012

  Actual Average Record
Temperature  
Mean Temperature 75 °F 78 °F  
Max Temperature 87 °F 87 °F 96 °F (1986)
Min Temperature 63 °F 68 °F 44 °F (2000)
Degree Days  
Heating Degree Days 0 0  
Month to date heating degree days 0 0  
Since 1 July heating degree days 0 0  
Cooling Degree Days 10 13  
Month to date cooling degree days 108 121  
Year to date cooling degree days 4120 3532  
Growing Degree Days 26 (Base 50)    
Moisture  
Dew Point 69 °F    
Average Humidity 76    
Maximum Humidity 91    
Minimum Humidity 61    
Precipitation  
Precipitation 0.00 in 0.13 in 3.43 in (2002)
Month to date precipitation 0.08 1.31  
Year to date precipitation 20.20 22.04  
Sea Level Pressure  
Sea Level Pressure 29.99 in    
Wind  
Wind Speed 7 mph (ESE)    
Max Wind Speed 17 mph    
Max Gust Speed 23 mph    
Visibility 10 miles    
Events      
T = Trace of Precipitation, MM = Missing Value Source: NWS Daily Summary

Daily Weather History Graph

Daily Weather History Graph

Search for Another Location

Airport or City:

Trip Planner

Search our weather history database for the weather conditions in past years. The results will help you decide how hot, cold, wet, or windy it might be!

Date:

Astronomy

Oct. 09, 2012 Rise Set
Actual Time 7:25 AM CDT 7:07 PM CDT
Civil Twilight 7:02 AM CDT 7:30 PM CDT
Nautical Twilight 6:36 AM CDT 7:57 PM CDT
Astronomical Twilight 6:09 AM CDT 8:23 PM CDT
Moon 1:37 AM CDT (10/9) 3:04 PM CDT (10/9)
Length of Visible Light 12h 27m
Length of Day
11h 41m
Last Quarter, 36% of the Moon is Illuminated
Oct 9
Last Quarter
Oct 15
New
Oct 21
First Quarter
Oct 29
Full
Nov 6
Last Quarter

Hourly Weather History & Observations

Time (CDT) Temp. Heat Index Dew Point Humidity Pressure Visibility Wind Dir Wind Speed Gust Speed Precip Events Conditions
12:53 AM 68.0 °F - 61.0 °F 78% 30.07 in 10.0 mi NNW 5.8 mph - N/A   Overcast
1:53 AM 68.0 °F - 63.0 °F 84% 30.06 in 10.0 mi Calm Calm - N/A   Overcast
2:53 AM 68.0 °F - 63.0 °F 84% 30.04 in 10.0 mi Calm Calm - N/A   Overcast
3:53 AM 68.0 °F - 62.1 °F 81% 30.02 in 10.0 mi NNW 3.5 mph - N/A   Overcast
4:53 AM 64.9 °F - 61.0 °F 87% 30.01 in 10.0 mi West 3.5 mph - N/A   Clear
5:22 AM 66.2 °F - 62.6 °F 88% 30.02 in 10.0 mi Calm Calm - N/A   Mostly Cloudy
5:53 AM 64.9 °F - 61.0 °F 87% 30.02 in 10.0 mi WNW 3.5 mph - N/A   Scattered Clouds
6:53 AM 64.0 °F - 60.1 °F 87% 30.03 in 10.0 mi Calm Calm - N/A   Clear
7:53 AM 64.0 °F - 59.0 °F 84% 30.03 in 10.0 mi Calm Calm - N/A   Partly Cloudy
8:53 AM 70.0 °F - 59.0 °F 68% 30.04 in 10.0 mi NNW 3.5 mph - N/A   Clear
9:53 AM 75.9 °F - 64.0 °F 67% 30.05 in 10.0 mi Calm Calm - N/A   Clear
10:28 AM 78.8 °F - 68.0 °F 69% 30.05 in 10.0 mi ESE 5.8 mph - N/A   Mostly Cloudy
10:45 AM 80.6 °F 83.9 °F 69.8 °F 70% 30.05 in 10.0 mi East 4.6 mph - N/A   Mostly Cloudy
10:53 AM 82.0 °F 85.5 °F 69.1 °F 65% 30.05 in 10.0 mi SE 3.5 mph - N/A   Mostly Cloudy
11:00 AM 80.6 °F 83.9 °F 69.8 °F 70% 30.04 in 10.0 mi SE 5.8 mph - N/A   Mostly Cloudy
11:53 AM 84.9 °F 90.1 °F 71.1 °F 63% 30.02 in 10.0 mi ESE 15.0 mph 21.9 mph N/A   Overcast
12:53 PM 84.9 °F 89.4 °F 70.0 °F 61% 30.00 in 10.0 mi ESE 12.7 mph 19.6 mph N/A   Scattered Clouds
1:53 PM 84.9 °F 90.1 °F 71.1 °F 63% 29.97 in 10.0 mi ESE 10.4 mph - N/A   Mostly Cloudy
2:53 PM 86.0 °F 91.5 °F 71.1 °F 61% 29.95 in 10.0 mi SE 13.8 mph 19.6 mph N/A   Mostly Cloudy
3:53 PM 86.0 °F 93.0 °F 73.0 °F 65% 29.94 in 10.0 mi ESE 11.5 mph - N/A   Mostly Cloudy
4:33 PM 86.0 °F 93.4 °F 73.4 °F 66% 29.93 in 10.0 mi East 13.8 mph - N/A   Mostly Cloudy
4:42 PM 84.2 °F 90.9 °F 73.4 °F 70% 29.93 in 10.0 mi ESE 12.7 mph 23.0 mph N/A   Scattered Clouds
4:53 PM 84.0 °F 90.2 °F 73.0 °F 69% 29.93 in 10.0 mi East 13.8 mph - N/A   Partly Cloudy
5:53 PM 82.9 °F 89.4 °F 73.9 °F 74% 29.93 in 10.0 mi East 13.8 mph - N/A   Mostly Cloudy
6:01 PM 82.4 °F 88.2 °F 73.4 °F 74% 29.93 in 10.0 mi ESE 10.4 mph 19.6 mph N/A   Mostly Cloudy
6:11 PM 82.4 °F 88.2 °F 73.4 °F 74% 29.94 in 10.0 mi East 10.4 mph - N/A   Overcast
6:22 PM 82.4 °F 88.2 °F 73.4 °F 74% 29.93 in 10.0 mi East 15.0 mph - N/A   Mostly Cloudy
6:53 PM 81.0 °F 86.2 °F 73.9 °F 79% 29.94 in 10.0 mi East 8.1 mph - N/A   Mostly Cloudy
7:13 PM 80.6 °F 85.4 °F 73.4 °F 79% 29.94 in 10.0 mi East 8.1 mph - N/A   Partly Cloudy
7:53 PM 79.0 °F - 75.0 °F 88% 29.94 in 10.0 mi East 8.1 mph - N/A   Partly Cloudy
8:53 PM 79.0 °F - 75.0 °F 88% 29.96 in 10.0 mi East 6.9 mph - N/A   Scattered Clouds
9:53 PM 79.0 °F - 75.9 °F 90% 29.98 in 10.0 mi ESE 6.9 mph - N/A   Scattered Clouds
10:53 PM 79.0 °F - 75.9 °F 90% 29.99 in 10.0 mi ESE 4.6 mph - 0.00 in   Scattered Clouds
11:53 PM 78.1 °F - 75.9 °F 93% 29.99 in 10.0 mi Calm Calm - N/A   Mostly Cloudy